TimeCDT,TemperatureF,Dew PointF,Humidity,Sea Level PressureIn,VisibilityMPH,Wind Direction,Wind SpeedMPH,Gust SpeedMPH,PrecipitationIn,Events,Conditions,WindDirDegrees,DateUTC
12:54 AM,37.0,30.0,76,30.04,10.0,South,4.6,-,N/A,,Clear,190,2013-10-22 05:54:00
1:54 AM,35.1,30.0,82,30.04,10.0,South,4.6,-,N/A,,Clear,190,2013-10-22 06:54:00
2:54 AM,36.0,30.0,79,30.03,10.0,South,4.6,-,N/A,,Scattered Clouds,180,2013-10-22 07:54:00
3:54 AM,37.9,32.0,79,30.01,10.0,South,3.5,-,N/A,,Mostly Cloudy,180,2013-10-22 08:54:00
4:54 AM,37.9,33.1,83,30.00,10.0,South,3.5,-,N/A,,Overcast,180,2013-10-22 09:54:00
5:54 AM,39.0,33.1,79,29.98,10.0,SSE,5.8,-,N/A,,Overcast,160,2013-10-22 10:54:00
6:54 AM,39.0,33.1,79,29.96,10.0,SSE,4.6,-,N/A,,Overcast,150,2013-10-22 11:54:00
7:54 AM,41.0,34.0,76,29.94,10.0,SSE,6.9,-,0.00,Rain,Light Rain,160,2013-10-22 12:54:00
8:54 AM,43.0,35.1,74,29.91,10.0,SSE,8.1,-,0.00,Rain,Light Rain,160,2013-10-22 13:54:00
9:54 AM,43.0,37.0,80,29.91,7.0,South,9.2,-,0.01,Rain,Light Rain,180,2013-10-22 14:54:00
10:54 AM,45.0,39.9,82,29.88,10.0,South,8.1,-,0.02,Rain,Light Rain,180,2013-10-22 15:54:00
11:54 AM,46.9,42.1,83,29.86,10.0,SSW,10.4,-,0.01,Rain,Light Rain,200,2013-10-22 16:54:00
12:54 PM,50.0,43.0,77,29.83,10.0,SW,9.2,-,0.00,,Overcast,230,2013-10-22 17:54:00
1:10 PM,51.8,42.8,71,29.82,10.0,WSW,6.9,-,N/A,,Overcast,250,2013-10-22 18:10:00
1:54 PM,51.1,42.1,71,29.82,10.0,WNW,10.4,-,N/A,,Overcast,290,2013-10-22 18:54:00
2:13 PM,51.8,42.8,71,29.81,9.0,WNW,10.4,-,0.00,Rain,Light Rain,300,2013-10-22 19:13:00
2:20 PM,50.0,44.6,82,29.81,6.0,NW,10.4,-,0.01,Rain,Light Rain,320,2013-10-22 19:20:00
2:33 PM,50.0,44.6,82,29.80,10.0,NNW,10.4,-,0.01,,Overcast,330,2013-10-22 19:33:00
2:54 PM,50.0,44.1,80,29.82,10.0,NW,12.7,-,0.01,,Overcast,320,2013-10-22 19:54:00
3:15 PM,50.0,44.6,82,29.82,10.0,NW,16.1,21.9,N/A,,Overcast,320,2013-10-22 20:15:00
3:38 PM,48.2,42.8,82,29.83,10.0,NW,19.6,27.6,N/A,,Overcast,310,2013-10-22 20:38:00
3:54 PM,46.9,43.0,86,29.85,5.0,NW,18.4,27.6,0.00,Rain,Light Rain,310,2013-10-22 20:54:00
4:01 PM,46.4,42.8,87,29.85,4.0,NW,18.4,-,0.00,Rain,Light Rain,310,2013-10-22 21:01:00
4:15 PM,46.4,42.8,87,29.86,6.0,NW,18.4,26.5,0.01,Rain,Light Rain,320,2013-10-22 21:15:00
4:24 PM,46.4,42.8,87,29.86,10.0,NW,15.0,-,0.01,Rain,Light Rain,320,2013-10-22 21:24:00
4:54 PM,44.1,39.9,85,29.88,10.0,NNW,18.4,-,0.01,,Overcast,330,2013-10-22 21:54:00
5:07 PM,44.6,39.2,81,29.88,10.0,NW,18.4,26.5,N/A,,Overcast,320,2013-10-22 22:07:00
5:20 PM,44.6,39.2,81,29.89,10.0,NW,18.4,-,N/A,,Overcast,320,2013-10-22 22:20:00
5:38 PM,42.8,37.4,81,29.90,10.0,NW,23.0,27.6,N/A,,Overcast,320,2013-10-22 22:38:00
5:54 PM,41.0,37.0,86,29.92,10.0,NW,17.3,27.6,N/A,,Overcast,320,2013-10-22 22:54:00
6:32 PM,39.2,35.6,87,29.93,10.0,NW,19.6,24.2,N/A,,Overcast,320,2013-10-22 23:32:00
6:46 PM,39.2,35.6,87,29.94,10.0,NW,15.0,25.3,N/A,,Overcast,320,2013-10-22 23:46:00
6:54 PM,39.9,36.0,86,29.96,10.0,NNW,16.1,-,N/A,,Overcast,330,2013-10-22 23:54:00
7:06 PM,39.2,35.6,87,29.96,10.0,NNW,17.3,-,N/A,,Overcast,340,2013-10-23 00:06:00
7:54 PM,39.0,35.1,86,30.00,10.0,NNW,18.4,24.2,N/A,,Overcast,340,2013-10-23 00:54:00
8:54 PM,37.9,35.1,89,30.01,8.0,NNW,17.3,-,N/A,,Overcast,340,2013-10-23 01:54:00
9:54 PM,39.0,35.1,86,30.02,6.0,NNW,13.8,-,N/A,,Overcast,340,2013-10-23 02:54:00
10:54 PM,39.0,35.1,86,30.04,10.0,NNW,10.4,-,N/A,,Overcast,330,2013-10-23 03:54:00
11:08 PM,39.2,35.6,87,30.02,10.0,NNW,10.4,-,N/A,,Overcast,330,2013-10-23 04:08:00
11:45 PM,39.2,35.6,87,30.02,3.0,NNW,10.4,-,0.00,Rain,Light Rain,330,2013-10-23 04:45:00
11:54 PM,37.9,35.1,89,30.03,3.0,NNW,13.8,-,0.00,Rain,Light Rain,330,2013-10-23 04:54:00